SCP
-0 -0 -0 0 0 0 -0 0 0 0 0 0 0 0 0 0 0 0 0 0 0 0 -0 0 0 0 -0 0 0 0 0 -0 -0 -0 -0 -0 -0 -0 -0 -0 -0 -0 -0 0 0 0 0 -0 0
-0 -0 0 0 0 0 -0 -0 -0 -0 0 0 0 0 0 0 0 0 0 0 0 -0 -0 0 0 0 -0 0 0 0 0 0 0 0 0 0 0 0 0 0 0 0 0 0 0 0 0 0 0
-0 0 0 0 0 0 0 0 0 -0 0 0 0 0 0 0 0 0 0 0 0 0 -0 0 0 -0 -0 -0 0 0 0 0 0 0 0 0 -0 -0 -0 -0 -0 0 0 0 0 0 0 0 0
0 0 0 0 0 0 0 0 -0 0 0 0 0 0 0 0 0 0 0 0 0 0 -0 0 0 -0 -0 -0 0 0 0 0 -0 -0 -0 0 -0 -0 -0 -0 -0 0 0 -0 -0 -0 -0 0 0
0 0 0 0 0 0 0 0 -0 0 -0 -0 -0 0 0 -0 -0 0 -0 0 -0 0 -0 0 0 0 -0 -0 -0 0 0 0 -0 -0 0 0 -0 -0 -0 -0 -0 -0 0 -0 -0 -0 -0 -0 0
0 0 0 0 0 0 0 0 0 0 0 0 0 -0 0 -0 0 0 -0 -0 -0 -0 -0 -0 -0 -0 -0 -0 -0 0 0 0 -0 -0 -0 0 -0 -0 -0 -0 -0 -0 -0 0 -0 0 0 0 0
0 0 0 0 0 0 0 0 0 0 0 0 -0 -0 0 -0 -0 -0 0 0 -0 -0 -0 0 0 -0 -0 -0 -0 -0 0 0 -0 -0 -0 0 -0 -0 -0 -0 -0 -0 0 0 0 0 0 0 0
0 0 0 0 0 0 0 0 0 0 0 0 0 0 -0 -0 -0 -0 -0 -0 -0 -0 -0 -0 0 0 -0 0 -0 -0 -0 0 0 -0 -0 -0 0 0 0 -0 -0 0 0 0 0 0 0 0 0
0 0 0 0 0 0 0 0 -0 0 0 0 0 0 0 -0 -0 -0 -0 -0 -0 -0 -0 -0 0 0 -0 -0 -0 -0 -0 -0 0 0 -0 -0 -0 -0 -0 -0 -0 0 0 0 0 -0 -0 -0 0
0 0 0 0 0 0 0 0 0 0 0 0 0 0 0 -0 -0 -0 -0 -0 -0 -0 -0 -0 -0 -0 -0 -0 -0 -0 0 -0 -0 -0 -0 -0 -0 -0 -0 -0 0 -0 -0 -0 -0 -0 -0 0 -0
0 0 0 0 0 0 0 -0 0 -0 0 0 0 0 0 0 0 -0 -0 -0 -0 -0 -0 -0 -0 -0 -0 -0 -0 -0 -0 0 -0 -0 -0 -0 -0 -0 -0 -0 -0 -0 -0 -0 0 0 -0 -0 -0
0 0 0 0 0 -0 -0 -0 -0 0 0 0 0 0 0 0 0 0 0 0 -0 -0 -0 -0 -0 -0 -0 -0 -0 -0 -0 -0 -0 0 -0 0 0 -0 -0 -0 -0 -0 -0 -0 -0 -0 -0 -0 -0
0 0 0 0 0 0 -0 0 0 0 0 0 0 0 0 0 0 0 0 0 0 -0 -0 -0 -0 -0 -0 -0 -0 -0 -0 -0 -0 -0 0 0 0 0 0 -0 -0 -0 -0 -0 -0 -0 -0 -0 -0
0 0 0 0 0 0 0 0 -0 0 0 0 0 0 0 0 0 0 0 0 0 0 0 -0 -0 -0 -0 -0 -0 -0 -0 -0 -0 -0 -0 -0 0 0 -0 -0 -0 -0 -0 -0 -0 -0 -0 -0 -0
0 0 0 0 0 0 0 -0 -0 0 0 0 0 0 0 0 0 0 0 0 0 0 0 0 0 -0 -0 -0 -0 -0 -0 -0 -0 -0 -0 -0 -0 0 0 -0 -0 -0 -0 -0 -0 -0 -0 -0 -0
0 0 0 0 0 0 0 0 0 0 0 0 0 0 0 0 0 0 0 0 0 0 0 0 0 0 -0 -0 0 0 0 -0 -0 -0 -0 -0 0 0 0 0 -0 -0 -0 -0 -0 -0 -0 -0 -0
0 0 0 0 0 0 0 0 0 0 0 0 0 0 0 0 0 0 0 0 0 0 0 0 0 0 0 0 0 0 0 0 0 0 0 -0 -0 -0 0 0 0 0 0 -0 -0 -0 -0 -0 -0
0 0 0 0 -0 -0 0 0 -0 0 0 0 -0 0 0 0 0 0 0 0 0 0 0 0 0 0 0 0 0 0 0 0 0 0 0 0 0 0 0 0 0 0 0 -0 -0 -0 -0 -0 -0
-0 -0 -0 0 -0 0 -0 -0 -0 -0 0 0 0 -0 0 0 0 0 0 0 0 0 0 0 0 0 0 0 0 0 0 0 0 0 0 0 0 0 0 0 0 0 0 0 0 0 0 -0 0
-0 0 -0 -0 -0 -0 -0 0 -0 -0 -0 0 -0 0 0 0 0 0 0 0 0 0 0 0 0 0 0 0 0 0 0 0 0 0 0 0 0 0 0 0 0 0 0 0 0 0 0 0 0
-0 -0 -0 -0 -0 -0 -0 -0 -0 0 0 0 0 0 0 0 0 0 0 0 0 0 0 0 0 0 0 0 0 0 0 0 0 0 0 0 0 0 0 0 0 0 0 0 0 0 0 0 0
-0 -0 -0 -0 -0 -0 -0 -0 -0 -0 0 0 0 0 0 0 0 0 0 0 0 0 0 0 0 0 0 0 0 0 0 0 0 0 0 0 0 0 0 0 0 0 0 0 0 0 0 0 0
-0 -0 -0 -0 -0 -0 -0 -0 -0 0 0 0 0 0 0 0 0 0 0 0 0 0 0 0 0 0 0 0 0 0 0 0 0 0 0 0 0 0 0 0 0 0 0 0 0 0 0 0 0
-0 -0 -0 -0 -0 -0 -0 -0 -0 -0 0 0 0 0 0 0 0 0 0 0 0 0 0 0 0 1 1 0 0 0 0 0 0 0 0 0 0 0 0 0 0 0 0 0 0 0 0 0 0
0 0 -0 -0 -0 -0 0 0 0 0 0 0 0 0 0 0 0 0 0 0 0 0 0 0 0 0 1 1 0 0 0 0 0 0 0 0 0 0 0 0 0 0 0 0 0 0 0 0 0
-0 0 0 -0 0 0 -0 0 0 0 0 0 0 0 0 0 0 0 0 0 0 0 0 0 0 0 1 1 1 1 0 0 0 0 0 1 0 0 0 0 0 0 0 0 0 0 0 0 0
0 0 0 0 0 0 0 0 0 0 0 -0 0 0 0 0 0 0 0 0 0 0 0 0 0 0 0 1 1 1 1 1 1 0 0 1 1 1 0 0 0 0 0 0 0 0 0 0 0
0 0 0 0 0 0 0 0 0 0 -0 -0 -0 -0 0 0 0 0 0 0 0 0 0 0 0 0 0 0 1 1 1 1 1 1 0 0 0 0 0 0 0 0 0 0 0 0 0 0 0
0 0 0 0 0 0 0 0 0 0 0 -0 -0 -0 -0 -0 -0 -0 -0 -0 -0 0 0 0 0 0 0 0 0 0 1 1 1 1 1 1 0 0 0 0 0 0 0 1 0 0 0 0 0
0 0 0 0 0 0 0 0 0 0 0 0 -0 -0 -0 -0 -0 -0 -0 -0 -0 -0 0 0 0 0 0 0 0 0 0 0 1 1 1 1 1 0 0 0 0 0 0 0 0 1 1 0 0
Wind_Speed_500mb
24 27 25 4 7 8 6 5 5 1 1 3 29 12 16 5 8 8 25 59 66 73 68 60 53 46 38 34 33 36 40 43 43 40 38 34 33 33 32 33 35 36 36 36 37 40 39 39 39
20 25 11 3 8 6 6 7 15 10 13 26 19 11 6 8 9 12 56 56 66 71 69 62 56 49 42 36 35 36 39 43 44 42 38 36 34 36 36 35 36 38 38 38 39 40 40 40 39
18 16 6 8 6 6 4 6 10 1 24 16 6 3 3 5 12 53 55 58 66 70 67 62 58 52 45 40 37 38 41 43 43 40 36 36 37 38 38 38 39 41 40 40 40 39 39 39 38
9 2 9 7 6 6 3 10 10 4 10 2 13 7 1 5 33 37 57 55 69 69 65 62 60 54 47 42 40 39 41 43 41 38 36 37 38 38 38 38 39 42 42 42 42 42 41 40 39
4 5 8 5 8 9 8 15 32 8 4 14 15 5 5 14 30 48 55 58 68 68 64 62 61 57 51 45 42 42 43 44 43 40 38 38 37 37 38 38 37 37 37 36 38 38 38 35 32
5 6 8 3 10 8 12 17 15 26 8 5 6 14 8 34 27 50 54 60 63 64 65 64 62 59 54 49 46 44 45 47 46 43 40 39 38 37 37 36 36 36 37 37 34 34 30 27 25
10 8 7 7 7 11 7 27 10 18 18 8 11 13 5 35 36 47 55 60 63 62 65 67 65 61 55 51 48 46 46 48 48 46 41 40 39 39 39 38 39 38 36 35 35 33 29 26 23
6 7 7 6 6 9 16 22 20 27 12 16 14 9 5 40 42 53 61 64 64 64 66 69 68 64 60 56 50 47 46 48 49 47 43 40 39 39 38 39 39 37 36 35 35 32 29 26 22
7 8 4 3 9 8 26 19 23 34 16 22 12 5 6 30 47 61 71 71 70 70 70 71 71 68 64 59 55 50 47 47 49 48 45 44 42 41 40 38 39 39 37 37 36 35 32 30 26
8 7 11 3 4 10 24 20 33 21 35 6 17 29 19 25 57 74 81 83 80 78 76 74 74 72 68 64 61 56 53 51 51 51 50 46 43 42 41 40 40 40 39 37 36 35 34 33 30
6 5 8 9 18 33 17 17 31 20 12 3 24 46 26 39 67 80 85 84 82 78 78 78 76 75 73 71 67 62 59 56 54 53 50 48 46 45 45 44 44 43 43 42 40 39 38 36 35
5 9 13 19 43 25 11 29 11 32 40 43 51 59 37 44 77 84 89 87 83 83 79 78 79 79 77 74 72 69 67 64 62 59 55 53 51 50 49 49 46 45 44 43 42 40 38 38 38
7 13 34 44 43 47 37 25 21 40 52 33 44 31 31 44 75 82 85 86 85 86 84 83 81 80 79 79 76 73 70 67 64 62 60 58 55 53 52 50 48 47 45 44 42 40 40 40 39
17 15 23 28 33 30 32 19 5 11 35 49 42 32 31 37 67 76 84 89 91 87 87 85 84 81 80 79 78 75 72 68 65 63 62 60 58 54 52 50 50 48 46 44 42 40 39 39 41
14 15 12 30 52 15 67 9 7 44 60 56 52 52 42 46 51 80 81 86 88 90 88 89 87 85 83 81 79 77 72 70 68 65 62 61 59 56 54 52 51 48 46 45 44 43 43 43 42
12 12 13 15 50 27 30 11 19 66 63 64 73 75 65 47 60 66 78 82 81 84 91 92 90 89 86 86 82 79 76 71 68 67 66 63 61 58 56 55 53 48 48 47 47 45 46 46 47
17 6 8 22 34 19 15 30 21 70 67 53 61 74 73 63 47 69 79 85 85 81 84 94 95 94 91 88 86 83 81 77 73 71 70 68 65 62 60 58 55 53 52 52 50 49 50 50 50
7 8 8 11 15 10 24 38 31 54 49 55 53 69 81 76 65 51 66 80 89 90 88 86 94 99 96 91 90 89 87 84 82 78 76 72 70 68 65 63 59 57 57 58 58 57 53 53 49
6 7 10 11 18 21 12 39 33 46 49 45 57 50 66 72 67 57 46 53 78 91 94 96 93 99 102 103 102 101 101 95 91 87 82 79 77 75 72 71 68 65 65 63 60 59 58 59 56
1 5 10 15 12 21 23 47 27 22 30 47 48 53 55 59 58 58 54 53 59 79 92 98 101 101 101 107 111 108 105 102 96 91 88 86 85 83 80 77 75 73 72 72 70 68 67 64 60
6 4 7 13 11 11 16 20 16 45 38 47 52 49 48 49 57 53 41 43 47 72 85 90 96 106 107 106 109 111 109 107 105 103 99 97 95 91 87 84 82 80 78 78 77 74 74 71 68
5 9 11 13 11 6 8 15 23 17 40 27 50 57 50 46 42 39 44 44 33 44 75 91 96 100 107 110 115 113 118 122 119 114 106 103 100 95 91 90 88 87 83 83 81 77 76 73 75
12 11 12 7 4 7 8 5 15 27 35 34 45 60 68 63 55 58 48 34 37 34 37 83 94 104 105 115 120 118 117 117 119 117 117 110 105 100 95 92 93 92 87 82 80 80 78 76 76
13 7 11 8 6 5 7 1 10 16 25 39 57 64 69 76 70 74 73 59 52 36 34 51 87 103 107 110 116 124 124 117 116 122 116 116 111 107 103 97 94 92 91 88 84 81 78 76 75
19 11 7 9 8 7 10 9 15 23 26 33 43 56 68 68 76 86 96 100 92 75 50 39 61 99 107 113 114 120 125 125 122 118 117 115 113 115 109 107 103 98 93 90 89 88 85 81 80
9 2 8 5 4 9 13 9 3 33 44 57 64 74 65 78 77 87 98 105 108 112 89 49 23 63 88 101 112 114 114 121 127 126 122 119 113 109 113 109 109 105 102 99 94 90 85 84 83
9 6 5 6 0 5 4 7 8 30 32 43 61 71 69 69 75 84 95 105 111 115 121 103 67 16 26 66 83 92 96 100 110 112 115 117 114 110 102 101 100 100 100 97 93 90 88 88 84
6 5 4 5 3 6 4 6 5 19 22 17 20 41 62 69 76 77 83 91 97 103 109 110 108 95 39 13 42 64 76 84 93 97 98 97 99 96 92 89 78 71 71 70 73 77 76 78 81
9 7 7 3 5 2 7 4 9 13 21 15 25 35 45 58 71 72 81 83 84 95 93 92 103 105 99 76 13 26 46 62 71 83 89 94 97 97 86 62 53 51 57 62 65 66 69 72 72
5 5 7 5 4 4 5 8 5 11 29 36 32 34 44 55 58 60 71 77 82 84 88 87 86 89 92 85 81 47 13 26 47 59 65 72 84 92 96 77 57 64 57 62 69 69 65 63 69
Wind_Direction_500mb
331 339 335 22 41 61 312 336 311 324 249 132 148 165 192 161 189 211 154 165 168 167 168 167 169 165 169 161 157 153 152 149 149 148 146 144 140 137 136 136 139 138 136 130 126 124 124 121 119
329 335 328 74 83 76 288 317 13 292 109 113 135 101 109 254 224 162 150 159 170 170 169 168 171 169 172 171 165 160 158 154 150 148 146 143 143 141 139 138 139 137 133 130 128 127 125 124 122
325 339 336 89 110 166 120 20 316 326 94 95 88 176 266 245 201 155 157 161 170 174 171 170 172 173 175 176 173 166 163 159 156 152 149 148 147 145 144 143 141 138 137 135 132 130 128 124 121
328 332 52 79 239 254 224 299 303 244 204 213 160 124 174 215 160 162 160 165 171 175 173 173 173 176 177 180 176 170 167 163 161 156 153 154 152 150 148 147 145 145 143 141 140 138 133 130 126
330 72 53 36 285 286 283 309 353 317 261 161 146 179 78 145 169 164 165 169 174 176 175 176 176 177 179 183 179 174 171 169 167 163 160 159 157 155 153 152 149 148 145 144 143 140 138 135 133
73 77 67 237 270 281 286 342 354 6 353 155 126 127 118 164 180 171 172 171 176 178 176 177 178 179 182 185 181 178 175 174 172 170 168 165 162 161 157 155 154 153 151 150 149 146 143 137 129
104 88 191 177 264 319 282 351 40 342 351 317 160 125 211 189 184 180 180 177 177 180 178 178 179 181 185 187 185 182 179 177 177 176 175 171 168 166 163 161 161 161 160 160 160 159 156 150 139
81 84 139 213 203 264 1 355 348 359 316 330 185 169 197 194 193 185 181 181 182 182 182 180 180 183 186 188 187 185 183 181 181 181 180 178 175 173 170 166 167 167 168 169 171 170 168 164 157
113 65 258 233 138 280 2 360 343 338 333 331 209 296 271 204 198 188 184 186 186 186 185 183 183 185 187 188 188 187 187 185 184 185 186 184 181 178 176 174 173 174 176 177 180 182 183 183 181
81 119 218 166 28 6 340 353 323 337 325 341 323 342 290 220 198 197 192 191 189 189 188 187 186 187 188 190 191 189 189 190 189 190 190 189 187 185 183 182 181 182 184 185 187 190 193 196 198
29 164 4 350 30 1 344 335 326 319 313 303 319 328 288 211 199 202 200 201 195 192 192 190 189 190 191 192 192 193 193 194 193 194 196 194 193 191 190 190 189 190 192 193 195 198 200 203 206
29 33 28 332 330 338 322 316 283 273 263 303 303 303 271 230 207 206 204 204 202 198 198 195 194 194 195 196 196 197 197 197 197 197 198 199 199 198 197 197 197 198 199 200 202 204 207 209 212
58 355 335 331 322 318 296 242 251 265 282 309 323 299 277 244 214 206 209 210 210 207 203 201 200 199 199 199 200 201 202 202 201 201 201 203 204 204 203 204 204 204 205 206 207 208 211 213 217
321 311 321 347 348 349 338 294 134 15 335 309 306 296 278 241 224 212 211 216 215 213 210 208 207 205 204 204 205 205 206 207 206 206 205 206 207 209 210 211 211 210 211 212 213 214 217 219 224
328 351 360 29 357 23 351 3 103 21 1 358 340 334 283 262 238 226 220 221 221 219 216 215 214 213 211 210 210 210 211 210 210 209 209 210 212 212 215 217 218 217 216 217 219 222 224 226 228
37 43 6 342 9 344 12 243 338 335 346 338 331 327 331 307 260 243 232 232 230 228 223 222 219 219 218 216 215 214 215 215 215 214 212 215 215 217 219 220 223 223 224 224 225 227 231 234 236
18 33 354 327 343 333 50 297 309 326 331 329 330 327 325 326 309 264 250 240 239 236 233 230 226 225 223 222 221 220 220 219 219 220 220 218 219 219 222 226 225 225 228 231 233 234 237 241 244
338 354 322 302 303 323 295 284 314 320 315 315 319 320 318 317 313 313 270 258 250 243 239 237 234 231 229 226 226 225 225 224 223 223 224 224 224 224 225 228 230 230 232 233 235 238 241 246 250
170 206 280 250 285 325 296 298 317 310 305 301 302 304 312 313 312 311 304 283 262 254 245 240 236 234 231 229 228 226 227 225 226 225 226 227 229 229 229 231 232 233 235 238 240 244 247 248 251
320 323 310 298 294 305 302 302 306 301 290 298 301 311 312 313 314 312 307 295 276 265 258 247 240 236 235 233 232 231 230 230 230 230 229 229 230 231 232 234 236 236 238 239 241 242 247 250 250
318 229 258 269 320 270 324 307 14 338 339 328 319 312 319 321 317 312 319 329 293 266 260 255 247 241 239 235 234 234 236 236 234 232 231 230 230 230 232 235 238 239 240 243 244 244 246 250 254
293 223 256 282 12 346 42 296 332 318 319 310 312 348 8 9 355 332 316 312 311 289 265 264 259 250 242 240 235 234 235 235 235 233 232 231 231 232 233 235 237 240 241 242 245 247 248 249 253
242 316 268 247 211 33 288 352 321 354 9 10 3 4 359 8 12 15 2 333 314 298 268 261 260 255 249 241 238 238 237 241 241 242 237 235 234 233 233 234 236 237 239 240 241 244 244 246 249
290 317 3 42 79 30 308 112 340 11 344 5 359 7 11 14 16 24 24 24 8 335 292 258 248 254 252 247 242 239 240 240 240 241 243 239 236 235 233 233 235 237 237 239 241 244 247 248 252
17 35 10 15 14 250 340 23 34 335 356 2 355 3 15 15 14 20 24 27 24 18 353 303 239 244 248 248 248 244 243 242 242 243 245 243 241 237 234 232 232 235 239 242 242 243 246 250 253
312 84 127 187 298 294 328 46 251 354 12 359 349 3 1 13 16 25 26 28 27 29 24 12 319 237 245 246 250 248 247 245 244 243 244 247 247 243 240 237 236 237 239 241 245 249 253 256 258
321 64 193 140 304 278 258 3 20 354 343 12 1 356 356 12 8 16 25 28 26 28 32 31 29 32 234 251 247 247 245 243 244 245 246 247 250 250 246 244 243 244 245 248 251 254 257 259 261
65 308 68 18 17 297 305 75 269 355 358 3 13 351 357 4 11 5 10 11 13 22 25 28 34 38 40 237 246 254 252 250 250 249 250 251 255 256 256 249 252 257 261 259 259 260 261 261 264
354 13 19 162 96 227 314 173 23 329 345 2 12 11 14 5 354 4 5 6 1 2 15 18 24 29 35 37 348 254 257 263 261 257 253 255 265 254 254 255 261 263 267 265 262 261 262 265 266
54 80 56 66 328 265 262 242 59 16 9 15 19 23 16 19 11 3 359 4 8 3 4 13 13 16 22 26 35 44 15 262 248 250 253 250 245 244 238 243 256 263 269 277 272 270 266 264 269
Wind_Speed_850mb
24 27 25 4 7 8 6 5 5 1 1 3 29 12 16 5 8 8 25 59 66 73 68 60 53 46 38 34 33 36 40 43 43 40 38 34 33 33 32 33 35 36 36 36 37 40 39 39 39
20 25 11 3 8 6 6 7 15 10 13 26 19 11 6 8 9 12 56 56 66 71 69 62 56 49 42 36 35 36 39 43 44 42 38 36 34 36 36 35 36 38 38 38 39 40 40 40 39
18 16 6 8 6 6 4 6 10 1 24 16 6 3 3 5 12 53 55 58 66 70 67 62 58 52 45 40 37 38 41 43 43 40 36 36 37 38 38 38 39 41 40 40 40 39 39 39 38
9 2 9 7 6 6 3 10 10 4 10 2 13 7 1 5 33 37 57 55 69 69 65 62 60 54 47 42 40 39 41 43 41 38 36 37 38 38 38 38 39 42 42 42 42 42 41 40 39
4 5 8 5 8 9 8 15 32 8 4 14 15 5 5 14 30 48 55 58 68 68 64 62 61 57 51 45 42 42 43 44 43 40 38 38 37 37 38 38 37 37 37 36 38 38 38 35 32
5 6 8 3 10 8 12 17 15 26 8 5 6 14 8 34 27 50 54 60 63 64 65 64 62 59 54 49 46 44 45 47 46 43 40 39 38 37 37 36 36 36 37 37 34 34 30 27 25
10 8 7 7 7 11 7 27 10 18 18 8 11 13 5 35 36 47 55 60 63 62 65 67 65 61 55 51 48 46 46 48 48 46 41 40 39 39 39 38 39 38 36 35 35 33 29 26 23
6 7 7 6 6 9 16 22 20 27 12 16 14 9 5 40 42 53 61 64 64 64 66 69 68 64 60 56 50 47 46 48 49 47 43 40 39 39 38 39 39 37 36 35 35 32 29 26 22
7 8 4 3 9 8 26 19 23 34 16 22 12 5 6 30 47 61 71 71 70 70 70 71 71 68 64 59 55 50 47 47 49 48 45 44 42 41 40 38 39 39 37 37 36 35 32 30 26
8 7 11 3 4 10 24 20 33 21 35 6 17 29 19 25 57 74 81 83 80 78 76 74 74 72 68 64 61 56 53 51 51 51 50 46 43 42 41 40 40 40 39 37 36 35 34 33 30
6 5 8 9 18 33 17 17 31 20 12 3 24 46 26 39 67 80 85 84 82 78 78 78 76 75 73 71 67 62 59 56 54 53 50 48 46 45 45 44 44 43 43 42 40 39 38 36 35
5 9 13 19 43 25 11 29 11 32 40 43 51 59 37 44 77 84 89 87 83 83 79 78 79 79 77 74 72 69 67 64 62 59 55 53 51 50 49 49 46 45 44 43 42 40 38 38 38
7 13 34 44 43 47 37 25 21 40 52 33 44 31 31 44 75 82 85 86 85 86 84 83 81 80 79 79 76 73 70 67 64 62 60 58 55 53 52 50 48 47 45 44 42 40 40 40 39
17 15 23 28 33 30 32 19 5 11 35 49 42 32 31 37 67 76 84 89 91 87 87 85 84 81 80 79 78 75 72 68 65 63 62 60 58 54 52 50 50 48 46 44 42 40 39 39 41
14 15 12 30 52 15 67 9 7 44 60 56 52 52 42 46 51 80 81 86 88 90 88 89 87 85 83 81 79 77 72 70 68 65 62 61 59 56 54 52 51 48 46 45 44 43 43 43 42
12 12 13 15 50 27 30 11 19 66 63 64 73 75 65 47 60 66 78 82 81 84 91 92 90 89 86 86 82 79 76 71 68 67 66 63 61 58 56 55 53 48 48 47 47 45 46 46 47
17 6 8 22 34 19 15 30 21 70 67 53 61 74 73 63 47 69 79 85 85 81 84 94 95 94 91 88 86 83 81 77 73 71 70 68 65 62 60 58 55 53 52 52 50 49 50 50 50
7 8 8 11 15 10 24 38 31 54 49 55 53 69 81 76 65 51 66 80 89 90 88 86 94 99 96 91 90 89 87 84 82 78 76 72 70 68 65 63 59 57 57 58 58 57 53 53 49
6 7 10 11 18 21 12 39 33 46 49 45 57 50 66 72 67 57 46 53 78 91 94 96 93 99 102 103 102 101 101 95 91 87 82 79 77 75 72 71 68 65 65 63 60 59 58 59 56
1 5 10 15 12 21 23 47 27 22 30 47 48 53 55 59 58 58 54 53 59 79 92 98 101 101 101 107 111 108 105 102 96 91 88 86 85 83 80 77 75 73 72 72 70 68 67 64 60
6 4 7 13 11 11 16 20 16 45 38 47 52 49 48 49 57 53 41 43 47 72 85 90 96 106 107 106 109 111 109 107 105 103 99 97 95 91 87 84 82 80 78 78 77 74 74 71 68
5 9 11 13 11 6 8 15 23 17 40 27 50 57 50 46 42 39 44 44 33 44 75 91 96 100 107 110 115 113 118 122 119 114 106 103 100 95 91 90 88 87 83 83 81 77 76 73 75
12 11 12 7 4 7 8 5 15 27 35 34 45 60 68 63 55 58 48 34 37 34 37 83 94 104 105 115 120 118 117 117 119 117 117 110 105 100 95 92 93 92 87 82 80 80 78 76 76
13 7 11 8 6 5 7 1 10 16 25 39 57 64 69 76 70 74 73 59 52 36 34 51 87 103 107 110 116 124 124 117 116 122 116 116 111 107 103 97 94 92 91 88 84 81 78 76 75
19 11 7 9 8 7 10 9 15 23 26 33 43 56 68 68 76 86 96 100 92 75 50 39 61 99 107 113 114 120 125 125 122 118 117 115 113 115 109 107 103 98 93 90 89 88 85 81 80
9 2 8 5 4 9 13 9 3 33 44 57 64 74 65 78 77 87 98 105 108 112 89 49 23 63 88 101 112 114 114 121 127 126 122 119 113 109 113 109 109 105 102 99 94 90 85 84 83
9 6 5 6 0 5 4 7 8 30 32 43 61 71 69 69 75 84 95 105 111 115 121 103 67 16 26 66 83 92 96 100 110 112 115 117 114 110 102 101 100 100 100 97 93 90 88 88 84
6 5 4 5 3 6 4 6 5 19 22 17 20 41 62 69 76 77 83 91 97 103 109 110 108 95 39 13 42 64 76 84 93 97 98 97 99 96 92 89 78 71 71 70 73 77 76 78 81
9 7 7 3 5 2 7 4 9 13 21 15 25 35 45 58 71 72 81 83 84 95 93 92 103 105 99 76 13 26 46 62 71 83 89 94 97 97 86 62 53 51 57 62 65 66 69 72 72
5 5 7 5 4 4 5 8 5 11 29 36 32 34 44 55 58 60 71 77 82 84 88 87 86 89 92 85 81 47 13 26 47 59 65 72 84 92 96 77 57 64 57 62 69 69 65 63 69
Wind_Direction_850mb
331 339 335 22 41 61 312 336 311 324 249 132 148 165 192 161 189 211 154 165 168 167 168 167 169 165 169 161 157 153 152 149 149 148 146 144 140 137 136 136 139 138 136 130 126 124 124 121 119
329 335 328 74 83 76 288 317 13 292 109 113 135 101 109 254 224 162 150 159 170 170 169 168 171 169 172 171 165 160 158 154 150 148 146 143 143 141 139 138 139 137 133 130 128 127 125 124 122
325 339 336 89 110 166 120 20 316 326 94 95 88 176 266 245 201 155 157 161 170 174 171 170 172 173 175 176 173 166 163 159 156 152 149 148 147 145 144 143 141 138 137 135 132 130 128 124 121
328 332 52 79 239 254 224 299 303 244 204 213 160 124 174 215 160 162 160 165 171 175 173 173 173 176 177 180 176 170 167 163 161 156 153 154 152 150 148 147 145 145 143 141 140 138 133 130 126
330 72 53 36 285 286 283 309 353 317 261 161 146 179 78 145 169 164 165 169 174 176 175 176 176 177 179 183 179 174 171 169 167 163 160 159 157 155 153 152 149 148 145 144 143 140 138 135 133
73 77 67 237 270 281 286 342 354 6 353 155 126 127 118 164 180 171 172 171 176 178 176 177 178 179 182 185 181 178 175 174 172 170 168 165 162 161 157 155 154 153 151 150 149 146 143 137 129
104 88 191 177 264 319 282 351 40 342 351 317 160 125 211 189 184 180 180 177 177 180 178 178 179 181 185 187 185 182 179 177 177 176 175 171 168 166 163 161 161 161 160 160 160 159 156 150 139
81 84 139 213 203 264 1 355 348 359 316 330 185 169 197 194 193 185 181 181 182 182 182 180 180 183 186 188 187 185 183 181 181 181 180 178 175 173 170 166 167 167 168 169 171 170 168 164 157
113 65 258 233 138 280 2 360 343 338 333 331 209 296 271 204 198 188 184 186 186 186 185 183 183 185 187 188 188 187 187 185 184 185 186 184 181 178 176 174 173 174 176 177 180 182 183 183 181
81 119 218 166 28 6 340 353 323 337 325 341 323 342 290 220 198 197 192 191 189 189 188 187 186 187 188 190 191 189 189 190 189 190 190 189 187 185 183 182 181 182 184 185 187 190 193 196 198
29 164 4 350 30 1 344 335 326 319 313 303 319 328 288 211 199 202 200 201 195 192 192 190 189 190 191 192 192 193 193 194 193 194 196 194 193 191 190 190 189 190 192 193 195 198 200 203 206
29 33 28 332 330 338 322 316 283 273 263 303 303 303 271 230 207 206 204 204 202 198 198 195 194 194 195 196 196 197 197 197 197 197 198 199 199 198 197 197 197 198 199 200 202 204 207 209 212
58 355 335 331 322 318 296 242 251 265 282 309 323 299 277 244 214 206 209 210 210 207 203 201 200 199 199 199 200 201 202 202 201 201 201 203 204 204 203 204 204 204 205 206 207 208 211 213 217
321 311 321 347 348 349 338 294 134 15 335 309 306 296 278 241 224 212 211 216 215 213 210 208 207 205 204 204 205 205 206 207 206 206 205 206 207 209 210 211 211 210 211 212 213 214 217 219 224
328 351 360 29 357 23 351 3 103 21 1 358 340 334 283 262 238 226 220 221 221 219 216 215 214 213 211 210 210 210 211 210 210 209 209 210 212 212 215 217 218 217 216 217 219 222 224 226 228
37 43 6 342 9 344 12 243 338 335 346 338 331 327 331 307 260 243 232 232 230 228 223 222 219 219 218 216 215 214 215 215 215 214 212 215 215 217 219 220 223 223 224 224 225 227 231 234 236
18 33 354 327 343 333 50 297 309 326 331 329 330 327 325 326 309 264 250 240 239 236 233 230 226 225 223 222 221 220 220 219 219 220 220 218 219 219 222 226 225 225 228 231 233 234 237 241 244
338 354 322 302 303 323 295 284 314 320 315 315 319 320 318 317 313 313 270 258 250 243 239 237 234 231 229 226 226 225 225 224 223 223 224 224 224 224 225 228 230 230 232 233 235 238 241 246 250
170 206 280 250 285 325 296 298 317 310 305 301 302 304 312 313 312 311 304 283 262 254 245 240 236 234 231 229 228 226 227 225 226 225 226 227 229 229 229 231 232 233 235 238 240 244 247 248 251
320 323 310 298 294 305 302 302 306 301 290 298 301 311 312 313 314 312 307 295 276 265 258 247 240 236 235 233 232 231 230 230 230 230 229 229 230 231 232 234 236 236 238 239 241 242 247 250 250
318 229 258 269 320 270 324 307 14 338 339 328 319 312 319 321 317 312 319 329 293 266 260 255 247 241 239 235 234 234 236 236 234 232 231 230 230 230 232 235 238 239 240 243 244 244 246 250 254
293 223 256 282 12 346 42 296 332 318 319 310 312 348 8 9 355 332 316 312 311 289 265 264 259 250 242 240 235 234 235 235 235 233 232 231 231 232 233 235 237 240 241 242 245 247 248 249 253
242 316 268 247 211 33 288 352 321 354 9 10 3 4 359 8 12 15 2 333 314 298 268 261 260 255 249 241 238 238 237 241 241 242 237 235 234 233 233 234 236 237 239 240 241 244 244 246 249
290 317 3 42 79 30 308 112 340 11 344 5 359 7 11 14 16 24 24 24 8 335 292 258 248 254 252 247 242 239 240 240 240 241 243 239 236 235 233 233 235 237 237 239 241 244 247 248 252
17 35 10 15 14 250 340 23 34 335 356 2 355 3 15 15 14 20 24 27 24 18 353 303 239 244 248 248 248 244 243 242 242 243 245 243 241 237 234 232 232 235 239 242 242 243 246 250 253
312 84 127 187 298 294 328 46 251 354 12 359 349 3 1 13 16 25 26 28 27 29 24 12 319 237 245 246 250 248 247 245 244 243 244 247 247 243 240 237 236 237 239 241 245 249 253 256 258
321 64 193 140 304 278 258 3 20 354 343 12 1 356 356 12 8 16 25 28 26 28 32 31 29 32 234 251 247 247 245 243 244 245 246 247 250 250 246 244 243 244 245 248 251 254 257 259 261
65 308 68 18 17 297 305 75 269 355 358 3 13 351 357 4 11 5 10 11 13 22 25 28 34 38 40 237 246 254 252 250 250 249 250 251 255 256 256 249 252 257 261 259 259 260 261 261 264
354 13 19 162 96 227 314 173 23 329 345 2 12 11 14 5 354 4 5 6 1 2 15 18 24 29 35 37 348 254 257 263 261 257 253 255 265 254 254 255 261 263 267 265 262 261 262 265 266
54 80 56 66 328 265 262 242 59 16 9 15 19 23 16 19 11 3 359 4 8 3 4 13 13 16 22 26 35 44 15 262 248 250 253 250 245 244 238 243 256 263 269 277 272 270 266 264 269